Wetbulb
60.35 61.89 62.51 63.07 63.78 63.02 61.63 60.00 59.15 57.73 54.90 52.97 48.81 47.95 48.60 48.63 57.03 59.37 59.97 63.76 65.90 66.25 65.21 64.60 63.64 62.84 61.99 61.04 60.97 60.32 60.54 59.44 59.35 59.55 59.31 59.04 58.77 58.65 58.55 58.68 58.93 59.21 59.46
61.87 61.75 62.12 62.08 63.12 63.48 63.00 61.31 59.87 57.83 54.64 51.19 48.97 47.73 47.99 48.51 54.24 57.36 58.45 60.69 64.61 65.37 65.06 64.06 63.39 62.89 62.08 61.11 61.18 60.03 60.14 59.10 59.06 58.82 58.31 58.20 57.89 57.85 57.84 57.80 57.68 57.95 58.31
63.17 62.41 62.42 61.79 61.70 62.14 62.79 61.18 60.06 56.96 52.43 50.12 48.16 47.44 47.07 47.50 50.62 56.36 57.06 57.80 60.73 62.72 64.10 63.76 63.01 62.58 61.81 61.13 61.02 59.95 59.93 58.80 58.29 57.82 57.60 57.19 56.82 56.74 56.75 56.62 56.48 56.48 56.87
64.28 63.29 63.31 63.34 63.01 61.72 61.88 60.96 58.79 55.90 52.38 49.31 47.82 47.07 46.44 47.26 48.72 55.11 55.18 55.34 55.81 56.73 61.07 63.30 62.87 62.27 62.11 61.23 60.62 60.17 59.18 58.30 57.29 56.88 56.62 55.96 55.66 55.45 55.40 55.33 55.19 55.18 55.30
64.37 64.48 64.08 64.00 63.48 63.96 62.86 62.19 60.15 55.67 52.15 49.51 48.30 47.11 45.87 46.29 47.74 51.35 53.90 53.36 52.99 53.48 53.27 58.79 61.85 61.68 62.13 61.36 60.83 59.98 59.20 57.57 56.67 55.60 55.22 54.98 54.84 54.59 54.70 54.49 54.37 54.29 54.46
62.81 62.94 63.12 63.17 62.98 63.16 63.41 62.05 61.65 55.28 52.78 50.75 50.03 49.08 45.89 45.99 46.44 47.47 51.04 53.80 51.67 51.65 50.83 51.40 56.19 56.27 60.26 60.90 60.31 59.04 59.17 57.98 56.29 55.39 54.79 54.39 54.12 54.10 53.83 54.08 54.06 54.00 54.42
63.88 62.30 61.56 60.97 61.55 62.22 62.59 62.64 61.42 58.58 53.60 50.71 49.97 47.76 46.43 46.28 44.38 45.92 46.74 50.19 50.77 50.78 49.22 49.91 51.78 50.38 54.60 59.67 58.34 58.04 58.48 58.90 56.58 55.13 54.67 54.14 53.83 53.72 53.92 54.14 54.18 54.29 54.46
65.14 64.55 62.30 61.20 61.49 61.74 60.33 60.27 59.54 56.26 56.54 51.04 49.30 44.31 44.60 45.14 43.11 44.56 44.85 46.58 48.05 49.97 49.12 48.28 48.00 47.13 48.00 49.62 50.50 57.16 56.92 57.09 56.78 55.94 54.92 54.32 53.81 53.89 53.63 53.81 53.85 54.17 54.56
64.21 63.92 63.74 62.60 60.99 61.66 61.71 61.17 60.61 57.98 57.56 51.11 50.39 48.97 40.31 41.29 40.63 41.46 42.07 44.64 45.25 45.28 48.58 48.97 48.30 47.15 45.69 46.15 50.38 52.84 54.55 53.83 55.07 56.06 55.67 54.66 53.98 53.38 53.13 53.31 53.81 54.01 54.29
62.37 63.10 62.70 62.13 61.40 60.77 60.50 59.63 59.95 59.65 55.09 52.05 50.01 50.24 50.35 45.38 41.69 42.35 40.97 41.10 42.92 43.54 44.21 46.12 47.77 47.13 45.95 45.63 47.42 48.30 51.14 51.91 53.41 55.23 55.41 54.55 53.44 53.02 52.68 53.10 53.81 53.59 53.93
59.87 61.75 62.56 61.78 61.01 60.70 60.47 60.18 60.04 60.32 58.83 58.49 51.15 47.79 47.86 48.14 44.69 42.95 41.01 41.33 44.80 44.60 44.12 45.34 46.46 46.51 45.19 43.78 43.86 46.60 50.45 50.52 52.24 52.73 53.04 52.84 52.24 51.97 52.05 52.74 53.19 52.78 52.32
53.39 57.99 60.74 60.91 60.57 60.07 60.02 59.23 59.76 57.99 58.11 56.29 55.93 53.86 50.38 48.73 48.19 44.63 43.43 42.24 43.53 45.81 44.87 45.38 44.38 43.68 42.61 43.30 45.29 46.84 49.62 50.47 50.56 50.71 50.95 50.58 49.96 50.02 51.14 51.59 51.85 51.52 51.11
52.75 56.08 58.14 58.70 59.24 61.12 60.35 60.68 59.76 57.32 58.30 57.34 56.21 53.04 52.62 50.86 50.66 48.57 47.69 45.75 41.29 42.83 41.84 41.87 41.96 42.36 42.52 42.00 43.43 47.40 50.35 49.55 48.89 47.97 47.71 48.43 48.62 48.96 48.65 48.85 50.14 50.93 50.68
52.27 54.70 56.61 57.10 57.10 57.79 59.06 59.08 56.54 55.86 57.17 56.82 55.95 53.26 52.33 51.67 50.11 49.76 48.56 44.80 40.20 38.79 38.88 39.66 39.79 40.71 41.11 42.40 45.20 47.18 45.50 45.92 45.50 45.29 46.14 47.70 48.23 47.62 47.32 47.19 48.74 49.57 48.93
52.11 52.84 52.89 52.84 53.19 54.13 55.28 55.33 54.45 54.03 55.93 55.20 54.72 54.05 52.01 51.15 50.19 49.44 48.91 47.93 46.48 42.43 37.94 37.53 37.81 39.30 41.45 43.44 44.90 42.52 42.32 44.70 45.60 45.78 45.97 46.73 46.17 45.62 46.24 46.85 47.32 46.54 46.32
50.08 50.66 50.32 50.61 50.63 51.07 51.82 51.58 50.59 50.14 50.05 49.75 51.39 51.35 48.48 46.09 45.62 45.20 44.94 43.74 42.44 43.67 40.99 38.06 37.04 38.02 40.16 41.84 43.42 40.21 40.46 43.11 44.19 45.08 45.76 45.13 44.97 44.88 45.69 46.53 45.27 44.96 45.09
46.20 47.05 47.68 47.05 47.14 46.73 46.64 46.33 45.65 44.95 47.23 46.82 45.69 45.79 43.54 42.83 41.78 40.92 40.92 41.15 41.00 40.53 39.40 35.89 36.13 36.38 37.36 38.69 40.52 38.97 39.96 39.81 39.38 43.72 44.49 44.13 44.21 45.02 44.75 43.63 43.53 43.70 43.92
40.12 40.48 41.51 41.71 42.66 43.03 42.52 42.09 41.38 41.41 43.66 42.64 41.80 41.29 40.00 40.43 38.82 39.03 38.98 38.69 38.50 38.45 37.89 34.33 33.48 33.11 33.72 36.27 36.17 36.09 37.64 38.64 38.05 39.48 42.12 43.13 42.52 42.13 42.27 42.68 42.45 41.75 41.71
38.03 38.09 38.43 38.27 38.55 39.20 39.63 39.53 39.55 39.45 39.77 40.03 39.82 39.36 38.87 38.44 37.32 37.20 36.95 36.01 35.46 36.03 35.42 35.49 32.90 33.18 32.75 34.09 33.73 34.21 34.45 35.88 36.89 38.94 40.24 40.65 41.20 41.78 40.81 40.34 40.49 40.48 40.28
37.04 37.23 37.54 37.84 37.80 37.31 37.35 37.25 36.48 35.17 35.26 37.12 37.61 37.72 37.51 37.18 36.46 35.45 34.31 33.38 34.07 34.59 34.54 34.45 33.56 32.91 33.58 33.44 34.11 33.22 32.15 33.39 32.62 34.47 36.03 37.02 37.31 37.94 38.63 38.54 38.15 38.14 38.16
37.58 37.12 37.30 37.73 37.86 38.32 38.20 35.58 35.55 35.52 35.47 35.48 35.91 36.75 37.13 38.30 38.42 37.25 35.36 34.08 34.14 33.49 33.59 32.78 32.14 32.39 32.26 31.49 30.98 30.86 30.19 28.52 27.92 28.35 28.48 27.98 27.81 27.60 29.16 33.59 34.65 36.06 36.71
37.86 38.23 38.00 37.74 38.19 38.83 39.95 39.40 35.48 34.46 34.74 34.38 33.64 34.10 34.95 35.85 37.51 40.08 39.26 38.37 36.73 33.78 32.48 32.03 31.32 29.16 28.61 28.07 26.60 26.12 25.06 23.28 21.68 26.66 25.65 25.63 27.40 26.93 27.07 27.60 33.68 35.74 36.92
35.94 35.87 36.43 37.42 37.24 38.02 39.28 38.59 37.09 32.09 31.77 31.34 32.15 32.09 32.52 33.40 33.41 32.74 35.44 36.58 36.46 37.44 36.23 31.38 28.40 25.79 25.02 25.44 23.84 21.24 22.81 21.30 22.55 25.01 24.98 23.26 25.25 24.97 26.17 28.89 34.46 35.62 36.62
34.17 34.52 34.65 35.32 36.44 37.86 38.91 37.76 35.74 31.50 29.16 26.20 27.77 26.23 27.62 28.36 30.49 30.48 29.34 28.78 28.44 28.33 28.87 30.41 28.16 27.49 26.84 27.12 26.53 25.06 24.81 23.55 24.93 25.46 25.16 18.22 22.92 23.69 25.20 25.64 33.23 34.88 35.97
32.33 32.35 32.99 32.95 32.72 33.22 36.03 35.03 29.11 22.32 22.94 23.18 27.10 26.63 26.97 26.45 32.82 34.15 27.38 25.90 25.81 25.32 30.70 33.30 32.55 33.10 33.63 34.00 31.94 25.58 19.79 16.01 18.87 21.89 24.23 22.61 22.80 23.13 24.26 24.11 25.74 32.68 34.56
31.86 31.60 24.00 24.41 31.31 19.93 34.40 34.13 27.91 24.70 21.41 24.69 24.16 25.57 32.91 30.34 33.48 33.50 26.00 24.19 23.08 23.64 24.27 24.92 24.25 25.21 26.15 24.79 30.75 25.49 20.67 11.34 11.96 13.98 22.68 19.75 21.60 22.90 17.94 23.33 24.75 25.37 25.27
MSLP
1019.89 1020.02 1020.15 1020.29 1020.26 1020.37 1020.50 1020.68 1020.83 1020.95 1021.00 1020.92 1020.97 1021.08 1021.02 1021.19 1021.18 1021.19 1021.05 1020.86 1020.84 1020.82 1021.00 1021.25 1021.35 1021.67 1021.87 1021.92 1022.27 1022.30 1022.34 1022.46 1022.49 1022.46 1022.45 1022.43 1022.49 1022.56 1022.67 1022.65 1022.65 1022.57 1022.50
1019.32 1019.54 1019.81 1020.01 1020.04 1020.09 1020.13 1020.32 1020.46 1020.55 1020.55 1020.65 1020.75 1020.87 1020.83 1021.04 1021.04 1021.02 1021.03 1020.91 1020.71 1020.82 1020.86 1021.10 1021.38 1021.42 1021.76 1021.96 1022.08 1022.42 1022.47 1022.56 1022.52 1022.57 1022.56 1022.60 1022.63 1022.66 1022.78 1022.82 1022.87 1022.79 1022.73
1018.77 1019.02 1019.22 1019.45 1019.56 1019.75 1019.81 1020.09 1020.21 1020.35 1020.48 1020.53 1020.76 1020.68 1020.69 1020.73 1020.87 1020.87 1020.88 1020.91 1020.79 1020.68 1020.71 1020.86 1021.15 1021.36 1021.61 1021.96 1022.14 1022.36 1022.44 1022.54 1022.59 1022.60 1022.65 1022.77 1022.80 1022.80 1022.92 1022.97 1023.04 1023.06 1022.90
1018.14 1018.50 1018.70 1018.83 1018.97 1019.26 1019.41 1019.57 1019.83 1020.10 1020.36 1020.18 1020.43 1020.56 1020.49 1020.58 1020.61 1020.68 1020.78 1020.83 1020.86 1020.80 1020.73 1020.63 1020.76 1021.04 1021.28 1021.59 1021.88 1022.17 1022.44 1022.60 1022.71 1022.72 1022.79 1022.93 1023.06 1023.00 1023.07 1023.16 1023.14 1023.17 1023.19
1017.45 1017.73 1017.98 1018.07 1018.42 1018.68 1018.94 1019.13 1019.37 1019.55 1019.95 1020.10 1019.88 1020.13 1020.37 1020.51 1020.48 1020.49 1020.67 1020.73 1020.77 1020.75 1020.76 1020.60 1020.56 1020.78 1020.97 1021.15 1021.44 1021.76 1022.13 1022.42 1022.60 1022.84 1022.92 1022.97 1023.09 1023.16 1023.14 1023.10 1023.14 1023.12 1023.16
1017.12 1017.35 1017.49 1017.50 1017.76 1018.18 1018.40 1018.61 1018.85 1019.16 1019.40 1019.55 1019.90 1019.85 1019.95 1020.16 1020.28 1020.29 1020.25 1020.34 1020.46 1020.45 1020.54 1020.52 1020.55 1020.70 1020.85 1021.01 1021.18 1021.38 1021.69 1022.13 1022.44 1022.62 1022.76 1022.96 1023.03 1023.14 1023.20 1023.17 1023.15 1023.12 1023.12
1016.87 1017.24 1017.33 1017.37 1017.53 1017.78 1017.81 1018.09 1018.36 1018.69 1019.14 1019.31 1019.95 1020.14 1020.03 1019.75 1019.93 1019.80 1019.81 1019.85 1019.97 1020.12 1020.28 1020.39 1020.37 1020.56 1020.72 1020.80 1021.13 1021.18 1021.31 1021.63 1022.08 1022.41 1022.68 1022.92 1022.92 1023.00 1023.08 1023.14 1023.13 1023.02 1022.97
1016.42 1016.47 1016.64 1016.86 1017.13 1017.39 1017.61 1017.82 1018.15 1018.62 1018.73 1019.15 1019.79 1020.47 1020.10 1019.66 1019.34 1019.01 1019.15 1019.22 1019.15 1019.44 1019.77 1019.91 1020.20 1020.33 1020.51 1020.64 1020.87 1021.04 1021.16 1021.36 1021.63 1021.92 1022.33 1022.62 1022.85 1022.91 1022.86 1023.15 1023.01 1022.97 1022.95
1015.79 1015.93 1016.04 1016.26 1016.54 1016.83 1016.94 1017.15 1017.55 1017.89 1018.25 1018.72 1018.78 1019.48 1020.31 1020.05 1019.71 1018.82 1018.61 1018.67 1018.78 1018.98 1019.04 1019.35 1019.68 1020.08 1020.33 1020.64 1020.86 1021.07 1021.44 1021.61 1021.56 1021.64 1022.04 1022.37 1022.67 1022.86 1022.84 1022.85 1022.91 1022.68 1022.71
1015.56 1015.54 1015.65 1015.71 1016.00 1016.27 1016.57 1016.66 1016.99 1017.42 1018.04 1018.37 1019.00 1018.75 1018.80 1018.84 1019.47 1019.14 1018.66 1018.63 1018.82 1018.99 1018.94 1019.29 1019.37 1019.63 1020.01 1020.58 1020.92 1021.31 1021.68 1021.82 1021.68 1021.53 1021.91 1022.22 1022.51 1022.95 1022.78 1022.70 1022.82 1022.41 1022.47
1015.27 1015.00 1015.02 1015.18 1015.30 1015.56 1015.83 1016.02 1016.40 1016.81 1017.02 1017.29 1017.78 1018.30 1018.46 1018.71 1018.82 1019.25 1018.76 1019.02 1018.81 1018.56 1018.71 1018.73 1018.93 1019.08 1019.53 1020.12 1020.74 1021.20 1021.68 1021.77 1021.90 1021.74 1021.89 1022.08 1022.56 1022.80 1022.76 1022.72 1022.76 1022.56 1022.56
1015.23 1014.78 1014.64 1014.65 1014.89 1015.11 1015.22 1015.58 1015.90 1016.25 1016.57 1016.98 1017.33 1017.71 1018.00 1018.19 1018.42 1019.07 1019.18 1019.09 1019.05 1018.93 1018.62 1018.56 1018.56 1018.77 1019.30 1019.54 1020.88 1021.54 1021.27 1021.48 1021.70 1021.92 1022.06 1022.24 1022.55 1022.84 1022.91 1022.93 1022.92 1022.92 1022.78
1015.35 1014.83 1014.62 1014.57 1014.64 1014.53 1014.68 1015.11 1015.60 1015.79 1016.04 1016.29 1016.67 1016.98 1017.12 1017.35 1017.61 1018.05 1018.58 1018.64 1019.52 1019.08 1018.94 1019.65 1019.26 1018.95 1018.89 1019.45 1019.97 1020.70 1020.71 1020.84 1021.42 1021.94 1022.34 1022.73 1022.88 1022.93 1023.32 1023.41 1023.39 1023.37 1022.98
1015.68 1015.18 1014.94 1014.83 1014.89 1014.88 1014.71 1014.93 1015.28 1015.61 1015.84 1015.92 1016.13 1016.46 1016.69 1016.85 1017.15 1017.25 1017.51 1018.33 1018.89 1019.21 1019.40 1019.70 1019.56 1019.02 1018.93 1018.99 1019.76 1020.39 1020.80 1021.45 1021.07 1022.07 1022.07 1022.88 1023.27 1023.07 1023.24 1023.08 1023.32 1023.15 1023.14
1015.78 1015.50 1015.48 1015.39 1015.40 1015.22 1015.16 1015.21 1015.49 1015.69 1015.75 1015.92 1016.01 1016.12 1016.45 1016.55 1016.80 1017.06 1017.35 1017.64 1018.20 1018.87 1019.37 1019.45 1019.39 1019.24 1019.04 1018.90 1019.37 1020.15 1020.98 1020.91 1021.38 1022.04 1022.24 1022.47 1022.82 1022.77 1023.02 1022.87 1022.66 1022.72 1022.85
1016.35 1016.20 1015.99 1015.91 1015.85 1015.81 1015.77 1015.87 1015.93 1016.07 1016.19 1016.41 1016.49 1016.49 1016.61 1016.92 1017.22 1017.36 1017.52 1017.71 1018.14 1018.62 1018.85 1019.05 1019.33 1019.23 1019.48 1019.39 1019.78 1020.30 1021.04 1021.25 1021.35 1021.66 1021.90 1022.05 1022.38 1022.44 1022.39 1022.36 1022.27 1022.03 1022.11
1016.90 1016.69 1016.62 1016.57 1016.45 1016.48 1016.46 1016.56 1016.80 1016.91 1016.97 1017.04 1017.14 1017.15 1017.53 1017.74 1018.05 1018.40 1018.42 1018.38 1018.43 1018.60 1018.65 1018.81 1019.52 1019.65 1019.62 1019.56 1020.05 1020.58 1021.16 1021.37 1021.65 1021.45 1021.61 1021.98 1022.04 1022.09 1022.18 1021.93 1021.81 1021.68 1021.62
1017.57 1017.59 1017.37 1017.18 1017.14 1017.15 1017.16 1017.23 1017.45 1017.53 1017.72 1017.88 1017.86 1018.02 1018.29 1018.34 1018.32 1018.55 1018.71 1018.84 1019.06 1018.93 1019.20 1018.84 1019.43 1019.72 1019.98 1019.94 1020.30 1020.51 1020.90 1021.55 1021.64 1021.66 1021.99 1022.01 1021.76 1021.65 1021.53 1021.51 1021.34 1021.11 1021.27
1018.19 1018.18 1017.95 1017.91 1017.96 1017.92 1017.92 1017.96 1017.95 1018.15 1018.38 1018.46 1018.43 1018.42 1018.57 1018.71 1018.89 1018.94 1019.07 1019.16 1019.32 1019.18 1019.28 1019.23 1019.57 1019.89 1020.07 1019.85 1020.61 1020.90 1021.29 1021.83 1021.48 1021.98 1021.71 1021.46 1021.20 1020.80 1021.16 1021.22 1021.19 1020.92 1020.74
1018.77 1018.72 1018.73 1018.60 1018.52 1018.45 1018.53 1018.61 1018.74 1018.88 1018.93 1019.09 1019.02 1019.27 1019.29 1019.34 1019.42 1019.47 1019.51 1019.45 1019.32 1019.56 1019.57 1019.63 1020.01 1020.42 1020.40 1020.69 1020.87 1021.19 1021.24 1021.31 1021.89 1021.56 1021.19 1021.25 1021.01 1020.81 1021.19 1021.03 1020.80 1020.73 1020.57
1019.53 1019.50 1019.29 1019.14 1019.01 1019.13 1019.33 1019.37 1019.40 1019.50 1019.71 1019.67 1019.73 1019.66 1019.45 1019.48 1019.60 1019.61 1019.58 1019.84 1019.94 1020.15 1020.28 1020.22 1020.64 1020.66 1020.67 1020.67 1020.89 1021.15 1021.35 1021.64 1021.74 1021.62 1021.26 1021.42 1021.31 1021.35 1021.14 1020.88 1020.68 1020.34 1020.29
1019.95 1019.94 1019.95 1020.04 1020.04 1019.91 1019.96 1019.92 1019.94 1020.23 1020.57 1020.59 1020.56 1020.34 1020.16 1020.21 1020.02 1019.75 1019.80 1019.86 1020.11 1020.16 1020.30 1020.55 1020.82 1020.91 1020.84 1020.91 1021.16 1021.30 1021.56 1021.93 1022.10 1021.67 1021.63 1021.50 1021.41 1020.99 1020.41 1020.84 1020.28 1019.74 1019.63
1020.85 1020.89 1020.99 1020.79 1020.67 1020.62 1020.58 1020.52 1020.65 1020.88 1021.09 1021.07 1021.05 1021.00 1020.99 1020.92 1020.75 1020.64 1020.46 1020.48 1020.47 1020.42 1020.42 1020.70 1020.93 1021.15 1021.22 1021.31 1021.44 1021.62 1021.80 1021.91 1021.93 1021.67 1021.85 1021.10 1020.76 1020.52 1020.27 1020.24 1019.64 1019.14 1018.98
1021.57 1021.63 1021.57 1021.41 1021.25 1021.30 1021.27 1021.25 1021.37 1021.49 1021.63 1021.63 1021.44 1021.31 1021.31 1021.22 1021.06 1020.98 1020.83 1020.80 1020.85 1020.82 1020.70 1020.77 1020.92 1021.16 1021.32 1021.46 1021.50 1021.52 1021.70 1022.02 1021.98 1021.38 1021.35 1021.70 1020.80 1020.29 1019.77 1019.53 1019.11 1018.79 1018.81
1022.12 1022.12 1022.12 1021.96 1021.98 1021.96 1021.75 1021.78 1022.02 1022.11 1022.19 1022.06 1021.79 1021.61 1021.54 1021.41 1021.12 1021.02 1021.17 1021.29 1021.26 1021.23 1020.93 1020.75 1020.82 1020.76 1020.70 1020.63 1020.83 1021.43 1021.88 1022.28 1022.12 1021.58 1021.26 1021.32 1020.94 1020.66 1019.79 1019.23 1018.93 1018.48 1018.38
1022.71 1022.76 1022.69 1022.62 1022.50 1022.33 1022.00 1022.06 1022.27 1022.41 1022.56 1022.33 1022.17 1021.95 1021.69 1021.48 1021.34 1021.34 1021.52 1021.70 1021.73 1021.69 1021.54 1021.44 1021.47 1021.32 1021.19 1021.11 1020.74 1021.06 1021.48 1022.59 1022.84 1022.04 1021.30 1021.46 1021.30 1021.18 1020.47 1019.49 1019.26 1019.01 1018.93
Wind_Speed
5 4 4 4 4 4 4 4 4 4 5 5 5 5 5 4 5 3 3 7 9 10 11 10 9 9 9 9 9 10 10 9 9 9 10 10 9 9 8 9 9 9 10
6 6 6 6 5 5 5 5 5 5 5 5 5 6 5 3 5 6 4 4 11 11 12 12 11 11 10 10 11 10 10 9 10 9 9 9 9 9 8 8 8 8 8
7 8 7 7 7 6 6 4 5 3 4 3 5 5 4 5 5 6 5 4 5 10 11 13 13 13 12 11 11 11 11 10 10 9 9 8 8 8 8 7 7 6 7
9 7 7 7 7 5 6 5 5 4 5 5 4 5 5 4 6 6 4 4 4 4 8 13 14 15 15 14 13 13 12 11 10 9 9 8 7 7 6 5 5 4 4
10 9 8 8 7 7 7 6 5 4 4 4 5 5 5 4 5 4 7 6 6 5 4 8 12 14 15 17 16 15 14 12 11 10 9 8 8 6 6 5 3 3 2
6 7 6 8 7 6 7 5 7 4 4 5 4 5 4 4 3 5 6 7 6 6 6 6 5 6 11 16 16 15 15 14 12 11 10 9 8 7 5 4 3 3 2
6 6 5 5 5 7 9 8 6 7 5 3 2 3 2 5 6 5 5 6 7 8 6 6 5 4 5 15 16 16 16 16 14 12 11 9 8 7 6 5 5 4 4
6 5 5 6 7 6 5 6 6 3 4 5 4 1 2 3 5 8 5 7 10 7 8 7 6 6 6 4 7 15 15 15 15 14 12 11 9 8 7 7 6 6 7
6 6 6 5 6 7 8 9 8 9 8 4 6 5 1 6 1 1 7 6 7 6 7 8 9 8 6 5 7 8 11 14 14 14 13 11 10 9 7 7 8 7 8
6 6 7 7 6 5 6 5 5 7 3 5 2 7 4 4 5 4 2 3 4 6 6 5 8 8 8 5 7 7 10 11 13 13 12 11 10 9 8 8 10 7 8
6 6 7 7 7 6 6 7 6 7 7 9 6 3 6 2 1 3 4 4 2 4 5 7 7 7 7 5 4 6 12 11 12 10 11 10 8 8 8 9 10 8 9
5 5 6 6 5 5 6 5 5 6 6 6 4 5 4 3 6 3 2 2 1 4 2 2 4 4 5 7 8 9 13 13 12 10 9 8 6 6 9 11 12 12 12
3 5 3 4 3 5 5 4 3 5 6 7 8 7 7 7 3 3 4 4 3 2 2 4 2 3 6 5 5 14 17 15 10 6 4 6 5 4 6 9 15 18 16
4 5 4 5 5 4 2 1 1 2 4 5 7 6 6 6 6 7 8 5 3 3 2 4 2 1 5 8 11 14 7 13 12 7 7 11 12 9 8 9 15 17 17
3 3 4 4 5 5 4 3 0 1 1 3 4 5 5 4 4 4 4 5 4 4 4 3 3 1 3 8 12 9 8 13 12 12 12 13 12 11 14 15 15 15 16
6 6 5 6 6 6 6 6 4 5 4 4 3 3 1 2 1 1 2 2 2 4 5 3 3 2 3 4 10 6 5 10 12 14 16 13 14 14 17 18 17 16 16
7 6 6 6 6 6 6 6 6 6 6 5 5 6 6 5 3 3 3 1 1 2 4 2 0 0 2 5 5 5 4 3 3 12 13 14 16 18 16 17 16 16 17
6 6 6 6 6 6 6 6 6 6 6 5 6 5 4 3 4 2 1 1 2 2 2 3 1 1 1 2 3 5 4 3 4 7 14 17 15 16 16 16 14 13 16
6 6 7 7 6 6 6 6 6 6 6 6 5 5 4 3 2 1 1 2 2 2 0 1 1 1 1 2 2 2 2 4 4 11 15 15 14 13 12 13 15 14 14
6 6 6 6 6 6 7 6 7 6 6 6 7 5 4 4 2 2 3 2 3 2 3 2 2 2 1 2 2 2 1 1 3 4 7 6 7 9 13 14 13 14 14
6 5 6 7 7 7 5 6 6 7 6 6 5 4 5 6 5 4 2 4 4 3 2 2 1 0 1 1 1 0 1 1 2 2 1 2 2 3 5 10 11 13 13
9 10 10 8 9 7 13 12 9 7 6 5 5 7 7 10 10 10 9 8 5 2 2 1 1 1 1 2 1 1 1 2 2 1 1 3 4 5 4 4 13 14 13
8 8 7 8 9 8 13 13 12 5 5 5 5 4 5 5 7 5 9 9 8 7 5 1 2 1 1 0 2 1 1 2 2 3 1 4 1 4 4 6 13 13 13
6 4 6 7 7 7 12 11 11 5 4 3 4 3 5 4 3 3 5 5 5 5 4 2 2 2 3 4 4 4 3 2 3 4 3 3 1 4 3 4 15 15 13
5 5 4 6 6 5 11 11 7 4 3 4 4 4 3 4 5 8 5 4 4 3 6 7 5 4 6 7 4 3 1 2 3 2 1 1 2 4 3 3 3 3 1
5 4 4 4 7 4 4 7 5 2 3 3 4 5 7 4 6 6 4 3 2 2 3 4 5 5 6 6 8 1 3 3 2 3 2 1 2 3 5 3 2 4 4
Wind_Direction
189 186 203 200 201 190 202 208 212 223 229 235 231 229 245 197 201 204 221 206 184 183 187 189 185 189 181 173 168 162 151 146 138 132 123 120 114 108 102 94 88 85 83
195 196 199 208 211 203 205 204 207 210 217 208 224 221 233 211 207 203 214 222 192 191 194 197 201 195 189 187 176 175 163 159 152 145 141 133 126 120 113 103 96 90 87
196 195 201 208 212 208 206 207 225 224 225 223 234 224 215 220 210 210 211 213 210 195 199 206 205 202 194 198 190 183 178 171 166 158 153 147 141 131 124 116 105 96 92
196 197 204 213 206 201 208 199 199 209 228 198 206 227 219 214 217 210 206 210 216 206 211 212 205 205 200 200 198 195 190 184 177 172 166 163 160 151 143 134 127 115 101
204 204 212 220 192 206 211 208 212 187 199 225 208 216 227 225 216 202 211 211 213 214 209 226 207 206 208 205 203 202 199 194 190 188 184 181 180 177 173 165 163 156 166
214 207 217 216 196 205 217 204 211 198 192 203 214 217 218 241 233 224 209 212 214 212 210 210 211 201 204 214 210 213 206 201 201 198 194 197 197 197 199 202 212 224 249
232 217 226 226 198 204 219 216 220 211 233 182 89 294 282 238 239 225 215 212 212 214 207 208 197 186 197 201 216 219 213 203 206 207 207 206 205 209 217 230 248 256 260
226 221 217 216 208 215 225 211 200 225 258 181 159 60 267 302 252 229 204 214 213 200 209 203 197 190 191 189 201 219 216 217 215 211 211 212 217 214 218 248 255 268 273
234 225 224 218 208 214 221 219 216 207 235 221 211 166 106 229 338 271 236 216 208 199 209 204 202 201 193 188 197 204 220 233 235 221 212 215 217 225 229 243 257 265 277
251 236 228 216 209 207 223 208 209 220 194 229 271 247 249 168 201 298 292 262 219 221 208 206 207 203 193 189 191 194 219 227 233 230 222 217 219 238 246 254 266 273 287
273 249 234 235 212 197 210 207 208 208 205 233 201 214 234 254 312 244 267 309 282 232 211 205 208 199 189 155 167 184 203 211 225 220 230 225 231 256 269 273 283 295 302
283 270 247 226 228 203 208 202 210 205 202 227 238 234 214 206 234 228 259 226 185 293 302 227 189 173 167 148 166 195 207 201 214 217 218 220 242 278 307 310 309 300 292
317 304 284 240 228 224 209 168 196 209 206 208 220 221 224 225 159 181 231 237 248 327 45 343 308 153 135 130 154 187 189 189 193 208 246 272 298 309 303 312 303 298 293
307 319 356 38 34 351 359 175 180 224 215 219 222 211 225 228 203 215 223 197 243 234 191 208 302 207 155 151 161 159 151 142 140 182 224 254 259 271 277 281 284 288 287
327 41 31 41 17 14 7 10 21 30 293 240 234 225 220 222 202 212 223 213 235 268 257 215 186 339 152 155 163 151 158 169 193 214 227 242 258 269 274 278 275 274 283
19 30 35 33 30 27 21 28 23 17 17 17 355 292 155 39 77 133 159 153 164 233 254 146 238 159 162 141 160 138 163 185 202 226 238 236 255 266 266 265 266 272 277
14 26 38 44 44 43 34 46 38 26 35 24 22 21 27 24 25 12 5 356 249 208 241 121 109 96 137 140 140 121 163 172 229 237 248 258 262 275 276 268 271 272 275
27 21 33 48 45 47 44 54 59 42 41 37 38 43 40 28 52 45 343 329 295 19 285 153 163 121 59 70 118 137 164 226 228 250 259 261 259 257 263 261 270 279 281
37 28 38 44 40 38 46 44 59 59 56 51 48 51 48 50 35 24 31 59 6 61 32 85 112 54 64 77 100 82 156 226 255 245 244 254 253 254 270 278 279 279 281
43 39 39 48 49 46 42 44 57 60 60 54 49 40 38 31 40 86 81 84 64 56 26 50 43 40 39 124 134 174 196 179 231 251 256 263 280 285 284 285 283 280 281
49 40 49 41 40 45 48 55 58 59 66 70 66 64 65 87 102 94 100 65 60 59 53 71 116 163 91 92 77 62 179 355 276 250 333 307 293 285 276 287 280 274 275
56 56 50 47 62 60 64 72 71 65 53 45 46 40 41 40 35 64 77 86 89 78 56 41 41 41 34 59 95 122 103 63 321 312 19 270 245 266 263 252 269 276 272
54 52 47 57 64 60 65 72 80 66 72 63 64 55 54 40 44 33 37 42 30 35 37 127 83 59 27 242 107 74 164 154 227 278 183 271 273 275 265 263 276 278 272
63 60 48 41 47 54 62 67 70 57 58 43 60 64 66 44 30 43 30 24 20 12 357 45 101 184 207 200 187 181 193 218 268 275 151 255 284 272 281 264 279 275 265
67 56 47 47 44 26 56 63 66 40 40 27 31 22 57 26 17 51 51 21 23 9 11 43 28 324 299 302 269 116 263 96 309 282 235 266 313 289 280 297 311 294 321
89 71 48 38 42 4 35 54 60 43 37 19 9 11 17 32 21 69 73 39 3 297 342 350 348 339 341 323 311 204 157 159 194 331 268 67 334 17 326 312 295 308 305